Regional Weather Roundup
Issued by NWS Portland, ME

Home | Current Version | Previous Version | Text Only | Print | Product List | Glossary On
Versions: 1 2 3 4 5 6 7 8 9 10 11 12 13 14 15 16 17 18 19 20 21 22 23 24 25 26 27 28 29 30 31 32 33 34 35 36 37 38 39 40 41 42 43 44 45 46 47 48 49 50
000
ASUS41 KGYX 040010
RWRGYX
WEATHER ROUNDUP FOR MAINE AND NEW HAMPSHIRE
NATIONAL WEATHER SERVICE GRAY ME
800 PM EDT TUE MAY 03 2016

MEZ002-005-006-010-012-015-018-020-021-024-026-027-029-040100-
MAINE

CITY           SKY/WX    TMP DP  RH WIND       PRES   REMARKS
PORTLAND       CLOUDY    47  41  80 S6        29.88R
6HR MIN TEMP:  47; 6HR MAX TEMP:  50;

SANFORD        CLOUDY    46  39  76 CALM      29.87S
BAR HARBOR     CLOUDY    48  41  76 NE6       29.89R
WISCASSET      CLOUDY    46  42  86 CALM      29.89R
6HR MIN TEMP:  46; 6HR MAX TEMP:  52;

ROCKLAND       CLOUDY    48  44  86 W3        29.87R
FRYEBURG       CLOUDY    50  42  74 E3        29.86R
6HR MIN TEMP:  50; 6HR MAX TEMP:  53;

LEWISTONAUBURN CLOUDY    52  39  62 SE3       29.86R
AUGUSTA        CLOUDY    50  41  71 E3        29.87R
6HR MIN TEMP:  50; 6HR MAX TEMP:  52;

WATERVILLE     CLOUDY    49  41  74 CALM      29.85R
BANGOR         CLOUDY    52  41  66 NE6       29.88R
6HR MIN TEMP:  52; 6HR MAX TEMP:  55;

GREENVILLE       N/A     43  37  79 NE6       29.84S
6HR MIN TEMP:  43; 6HR MAX TEMP:  49;

MILLINOCKET    CLOUDY    47  39  74 N6        29.89R
6HR MIN TEMP:  47; 6HR MAX TEMP:  50;

HOULTON        CLOUDY    44  40  85 N3        29.88R
6HR MIN TEMP:  44; 6HR MAX TEMP:  48; 6HR PCP:  0.01;

PRESQUE ISLE   CLOUDY    44  39  82 N6        29.90R
6HR MIN TEMP:  44; 6HR MAX TEMP:  46;

FRENCHVILLE    CLOUDY    42  35  76 N5        29.88S
6HR MIN TEMP:  42; 6HR MAX TEMP:  44;

CARIBOU        CLOUDY    44  38  79 N3        29.88S
6HR MIN TEMP:  44; 6HR MAX TEMP:  46;

$$

NHZ002-005-008-009-011-012-014-040100-
NEW HAMPSHIRE

CITY           SKY/WX    TMP DP  RH WIND       PRES   REMARKS
PORTSMOUTH     CLOUDY    48  40  76 SE2       29.86R
ROCHESTER      CLOUDY    49  41  74 CALM      29.85S
6HR MIN TEMP:  49; 6HR MAX TEMP:  53;

NASHUA         CLOUDY    52  46  82 SE3       29.87R
MANCHESTER     CLOUDY    52  44  74 SE6       29.84R
6HR MIN TEMP:  52; 6HR MAX TEMP:  54; 6HR PCP: TRACE;

CONCORD        CLOUDY    51  42  71 CALM      29.86R
6HR MIN TEMP:  51; 6HR MAX TEMP:  55;

LACONIA        CLOUDY    48  39  71 CALM      29.86R
PLYMOUTH       CLOUDY    50  41  70 CALM      29.84S
BERLIN         CLOUDY    49  39  68 CALM      29.85R
6HR MIN TEMP:  49; 6HR MAX TEMP:  51;

WHITEFIELD     CLOUDY    47  41  80 CALM      29.85R
6HR MIN TEMP:  47; 6HR MAX TEMP:  50;

JAFFREY        CLOUDY    47  44  90 CALM      29.85R
6HR MIN TEMP:  47; 6HR MAX TEMP:  50; 6HR PCP: TRACE;

KEENE          CLOUDY    52  43  71 CALM      29.85R
LEBANON        MOCLDY    48  39  71 E3        29.85R
6HR MIN TEMP:  48; 6HR MAX TEMP:  55;

MT WASHINGTON  CLOUDY    34  30  86 W2          N/A
6HR MIN TEMP:  34; 6HR MAX TEMP:  38;

$$

VTZ005-007-008-040100-
VERMONT

CITY           SKY/WX    TMP DP  RH WIND       PRES   REMARKS
ST JOHNSBURY     N/A     48  38  68 MISG      29.85R
MONTPELIER     CLOUDY    46  38  73 CALM      29.89R
BURLINGTON     FAIR      50  38  63 N5        29.85S
$$

MAZ007-012-024-CTZ003-RIZ002-NYZ038-NYZ072-040100-
SOUTHERN NEW ENGLAND AND NY

CITY           SKY/WX    TMP DP  RH WIND       PRES   REMARKS
BOSTON         LGT RAIN  47  41  80 E6        29.87R
WORCESTER      CLOUDY    47  43  86 NE3       29.85R
NANTUCKET      CLOUDY    47  44  90 NE10      29.83R
PROVIDENCE     CLOUDY    49  43  80 NE7       29.86R
HARTFORD       LGT RAIN  51  47  86 N6        29.83S
ALBANY         CLOUDY    54  41  61 CALM      29.83R
NEW YORK CITY  DRIZZLE   52  52 100 NE7       29.84R FOG
$$

ANZ081-ANZ082-ANZ150-NHZ014-MEZ023>029-040100-
COASTAL MARINE OBSERVATIONS

STATION/POSITION TIME  TEMP    WIND        PRES    WAVE
                       AIR SEA DIR/SP/G            HT/PER
                 (UTC) (F)     (DEG/KT/KT) (MB)    (FT/S)
MOUNT DESERT ROC 0000   45     330/  2/  3 1011.7R
MATINICUS ROCK   2300   44     280/  5/  5 1010.6F
ISLE OF SHOALS   2300   46      80/  2/  2 1011.0S
CASHES LEDGE BUO 2350   44 45  360/  2/  4 1010.9R   3/ 8
GEORGES BANK BUO 2350   45 46              1007.5F   4/ 9
$$

.............KEY..............
   WCI - WIND CHILL
   TC  - TEMPERATURE IN CELSIUS
   VSB - VISIBILITY IN MILES
   HX  - HEAT INDEX
   FAIR- INDICATES FEW OR NO CLOUDS BELOW 12,000 FT, WITH NO
         SIGNIFICANT WEATHER AND/OR OBSTRUCTIONS TO VISIBILITY.






USA.gov is the U.S. government's official web portal to all federal, state and local government web resources and services.